When you browse on this site, cookies collect data to enhance your experience and personalize the content and advertising you see.
Visit our Privacy Policy to learn more. By continuing to use the site, you agree to this use of cookies and data.
  • In France
  • List of Countries
  • For 7 days
  • Water Temperature
  • Satellite Maps
  • Weather Map
  • Weather Widgets
  • user-avatar
    Login

    Hourly Weather Hmelevaya

    Today, 21 May, Tuesday

    Time Temperature Precipitation Wind Pressure Humidity
    00:00 +14°C° 0 mm 1 mps 750 mmHg 78%
    01:00 +14°C° 0 mm 1 mps 751 mmHg 80%
    02:00 +13°C° 0 mm 1 mps 751 mmHg 82%
    03:00 +13°C° 0 mm 1 mps 751 mmHg 84%
    04:00 +13°C° 0 mm 1 mps 751 mmHg 84%
    05:00 +14°C° 0 mm 1 mps 751 mmHg 84%
    06:00 +14°C° 0 mm 1 mps 751 mmHg 83%
    07:00 +16°C° 0 mm 1 mps 751 mmHg 78%
    08:00 +18°C° 0 mm 1 mps 751 mmHg 72%
    09:00 +19°C° 0 mm 2 mps 751 mmHg 66%
    10:00 +20°C° 0 mm 2 mps 751 mmHg 61%
    11:00 +21°C° 0 mm 3 mps 751 mmHg 57%
    12:00 +22°C° 0 mm 3 mps 751 mmHg 52%
    13:00 +22°C° 0 mm 3 mps 750 mmHg 51%
    14:00 +22°C° 0 mm 4 mps 750 mmHg 51%
    15:00 +22°C° 0 mm 4 mps 750 mmHg 50%
    16:00 +22°C° 0 mm 4 mps 749 mmHg 54%
    17:00 +22°C° 0 mm 3 mps 749 mmHg 58%
    18:00 +21°C° 0 mm 3 mps 749 mmHg 62%
    19:00 +19°C° 0 mm 3 mps 748 mmHg 66%
    20:00 +18°C° 0 mm 3 mps 748 mmHg 70%
    21:00 +16°C° 0 mm 3 mps 748 mmHg 74%
    22:00 +14°C° 0 mm 3 mps 748 mmHg 74%
    23:00 +14°C° 0 mm 3 mps 748 mmHg 75%

    Tomorrow, 22 May, Wednesday

    Time Temperature Precipitation Wind Pressure Humidity
    00:00 +13°C° 0 mm 3 mps 748 mmHg 76%
    01:00 +13°C° 0 mm 3 mps 748 mmHg 76%
    02:00 +13°C° 0 mm 3 mps 747 mmHg 77%
    03:00 +13°C° 0 mm 3 mps 747 mmHg 77%
    04:00 +13°C° 0 mm 3 mps 747 mmHg 79%
    05:00 +14°C° 0 mm 2 mps 747 mmHg 80%
    06:00 +14°C° 0 mm 2 mps 746 mmHg 82%
    07:00 +15°C° 0 mm 2 mps 746 mmHg 82%
    08:00 +16°C° 0 mm 2 mps 746 mmHg 82%
    09:00 +16°C° 0 mm 3 mps 746 mmHg 81%
    10:00 +17°C° 0 mm 3 mps 745 mmHg 78%
    11:00 +17°C° 0 mm 4 mps 745 mmHg 75%
    12:00 +18°C° 0 mm 4 mps 745 mmHg 72%
    13:00 +19°C° 0 mm 4 mps 745 mmHg 68%
    14:00 +20°C° 0 mm 5 mps 744 mmHg 65%
    15:00 +21°C° 0 mm 5 mps 744 mmHg 61%
    16:00 +21°C° 0.1 mm 5 mps 744 mmHg 64%
    17:00 +21°C° 0.1 mm 4 mps 743 mmHg 67%
    18:00 +21°C° 0.1 mm 4 mps 743 mmHg 70%
    19:00 +20°C° 0 mm 3 mps 743 mmHg 76%
    20:00 +18°C° 0 mm 3 mps 743 mmHg 82%
    21:00 +17°C° 0 mm 3 mps 743 mmHg 87%
    22:00 +16°C° 0 mm 3 mps 743 mmHg 88%
    23:00 +14°C° 0 mm 3 mps 742 mmHg 88%

    Day after tomorrow, 23 May, Thursday

    Time Temperature Precipitation Wind Pressure Humidity
    00:00 +14°C° 0 mm 3 mps 742 mmHg 88%
    01:00 +14°C° 0 mm 3 mps 742 mmHg 88%
    02:00 +13°C° 0 mm 3 mps 742 mmHg 87%
    03:00 +13°C° 0 mm 3 mps 742 mmHg 87%
    04:00 +13°C° 0 mm 3 mps 742 mmHg 88%
    05:00 +13°C° 0 mm 3 mps 742 mmHg 90%
    06:00 +14°C° 0 mm 3 mps 741 mmHg 91%
    07:00 +16°C° 0 mm 3 mps 742 mmHg 87%
    08:00 +18°C° 0 mm 3 mps 742 mmHg 82%
    09:00 +20°C° 0 mm 3 mps 742 mmHg 78%
    10:00 +21°C° 0 mm 3 mps 741 mmHg 72%
    11:00 +24°C° 0 mm 3 mps 741 mmHg 66%
    12:00 +25°C° 0 mm 4 mps 741 mmHg 60%
    13:00 +25°C° 0.4 mm 4 mps 741 mmHg 59%
    14:00 +25°C° 0.4 mm 4 mps 741 mmHg 58%
    15:00 +26°C° 0.4 mm 4 mps 741 mmHg 58%
    16:00 +25°C° 0.5 mm 3 mps 741 mmHg 62%
    17:00 +25°C° 0.5 mm 3 mps 740 mmHg 67%
    18:00 +24°C° 0.5 mm 3 mps 740 mmHg 71%
    19:00 +22°C° 0.6 mm 3 mps 740 mmHg 76%
    20:00 +20°C° 0.6 mm 3 mps 741 mmHg 80%
    21:00 +18°C° 0.6 mm 2 mps 741 mmHg 84%
    22:00 +18°C° 0 mm 2 mps 741 mmHg 86%
    23:00 +17°C° 0 mm 2 mps 741 mmHg 87%

    24 May, Friday

    Time Temperature Precipitation Wind Pressure Humidity
    00:00 +16°C° 0 mm 2 mps 741 mmHg 88%
    01:00 +16°C° 0 mm 2 mps 741 mmHg 89%
    02:00 +16°C° 0 mm 2 mps 741 mmHg 90%
    03:00 +15°C° 0 mm 2 mps 741 mmHg 91%
    04:00 +16°C° 0 mm 2 mps 741 mmHg 90%
    05:00 +16°C° 0 mm 1 mps 741 mmHg 90%
    06:00 +16°C° 0 mm 1 mps 741 mmHg 90%
    07:00 +19°C° 0.1 mm 1 mps 742 mmHg 84%
    08:00 +20°C° 0.1 mm 1 mps 742 mmHg 79%
    09:00 +22°C° 0.1 mm 1 mps 742 mmHg 74%
    10:00 +23°C° 0.7 mm 2 mps 742 mmHg 69%
    11:00 +24°C° 0.7 mm 2 mps 742 mmHg 64%
    12:00 +25°C° 0.7 mm 3 mps 742 mmHg 59%
    13:00 +25°C° 0.7 mm 2 mps 742 mmHg 58%
    14:00 +25°C° 0.7 mm 2 mps 742 mmHg 57%
    15:00 +26°C° 0.7 mm 1 mps 742 mmHg 55%
    16:00 +25°C° 0.5 mm 1 mps 742 mmHg 60%
    17:00 +25°C° 0.5 mm 1 mps 741 mmHg 64%
    18:00 +24°C° 0.5 mm 1 mps 741 mmHg 69%
    19:00 +23°C° 0.3 mm 2 mps 741 mmHg 73%
    20:00 +20°C° 0.3 mm 2 mps 741 mmHg 77%
    21:00 +19°C° 0.3 mm 2 mps 741 mmHg 82%
    22:00 +18°C° 0 mm 2 mps 741 mmHg 84%
    23:00 +17°C° 0 mm 2 mps 741 mmHg 86%

    25 May, Saturday

    Time Temperature Precipitation Wind Pressure Humidity
    00:00 +17°C° 0 mm 3 mps 741 mmHg 88%
    01:00 +16°C° 0 mm 2 mps 740 mmHg 89%
    02:00 +16°C° 0 mm 2 mps 740 mmHg 90%
    03:00 +16°C° 0 mm 2 mps 740 mmHg 90%
    04:00 +16°C° 0.1 mm 2 mps 740 mmHg 90%
    05:00 +16°C° 0.1 mm 2 mps 740 mmHg 90%
    06:00 +16°C° 0.1 mm 2 mps 740 mmHg 90%
    07:00 +18°C° 0.6 mm 3 mps 740 mmHg 86%
    08:00 +19°C° 0.6 mm 3 mps 740 mmHg 81%
    09:00 +21°C° 0.6 mm 4 mps 740 mmHg 77%
    10:00 +22°C° 0.2 mm 4 mps 740 mmHg 73%
    11:00 +22°C° 0.2 mm 4 mps 740 mmHg 68%
    12:00 +23°C° 0.2 mm 4 mps 740 mmHg 64%
    13:00 +25°C° 0.1 mm 4 mps 739 mmHg 63%
    14:00 +25°C° 0.1 mm 4 mps 739 mmHg 63%
    15:00 +25°C° 0.1 mm 4 mps 739 mmHg 62%
    16:00 +24°C° 0.5 mm 3 mps 738 mmHg 66%
    17:00 +24°C° 0.5 mm 3 mps 738 mmHg 71%
    18:00 +22°C° 0.5 mm 3 mps 738 mmHg 75%
    19:00 +21°C° 0.8 mm 3 mps 738 mmHg 79%
    20:00 +19°C° 0.8 mm 3 mps 738 mmHg 83%
    21:00 +18°C° 0.8 mm 3 mps 738 mmHg 87%
    22:00 +17°C° 0 mm 3 mps 737 mmHg 89%
    23:00 +17°C° 0 mm 3 mps 737 mmHg 91%

    26 May, Sunday

    Time Temperature Precipitation Wind Pressure Humidity
    00:00 +16°C° 0 mm 2 mps 737 mmHg 92%
    01:00 +16°C° 0 mm 2 mps 737 mmHg 93%
    02:00 +16°C° 0 mm 2 mps 737 mmHg 94%
    03:00 +15°C° 0 mm 2 mps 737 mmHg 95%
    04:00 +16°C° 0 mm 1 mps 737 mmHg 94%
    05:00 +16°C° 0 mm 1 mps 737 mmHg 94%
    06:00 +16°C° 0 mm 1 mps 737 mmHg 93%
    07:00 +18°C° 0.1 mm 1 mps 737 mmHg 90%
    08:00 +18°C° 0.1 mm 2 mps 737 mmHg 87%
    09:00 +19°C° 0.1 mm 2 mps 737 mmHg 84%
    10:00 +19°C° 0.6 mm 3 mps 737 mmHg 82%
    11:00 +20°C° 0.6 mm 4 mps 737 mmHg 80%
    12:00 +21°C° 0.6 mm 5 mps 737 mmHg 78%
    13:00 +21°C° 0.1 mm 5 mps 737 mmHg 75%
    14:00 +21°C° 0.1 mm 6 mps 737 mmHg 72%
    15:00 +21°C° 0.1 mm 6 mps 737 mmHg 69%
    16:00 +21°C° 0 mm 5 mps 738 mmHg 69%
    17:00 +22°C° 0 mm 4 mps 738 mmHg 69%
    18:00 +22°C° 0 mm 4 mps 738 mmHg 69%
    19:00 +20°C° 0 mm 4 mps 739 mmHg 73%
    20:00 +19°C° 0 mm 4 mps 739 mmHg 77%
    21:00 +17°C° 0 mm 4 mps 739 mmHg 81%
    22:00 +15°C° 0 mm 4 mps 740 mmHg 85%
    23:00 +16°C° 0 mm 3 mps 740 mmHg 89%
    Show more